星链-34373 (STARLINK-34373)

导读

STARLINK-34373是美国SpaceX星链计划的卫星,于2025年7月26日发射,归属星链互联网星座组网卫星。星链项目旨在构建全球覆盖的低轨卫星互联网,为全球偏远地区、海洋空中等场景提供高速网络接入服务,该卫星的入轨进一步扩充了星链星座的规模,提升星座网络覆盖能力与服务容量。

基本信息
目录编号:
64944
目录名称:
STARLINK-34373
国际标识:
2025-158N
轨道中心:
EARTH
卫星名称:
星链-34373
卫星全名:
星链-34373 (STARLINK-34373)
卫星状态:
在轨 (已飞行322 天)
发射日期:
2025-07-26 UTC
国别 :
美国 (US)
星等 :
--
轨道信息
数据来源 国际轨道数据 AOE轨道数据
星历时间 2026-06-13T12:39:07+0800
14小时前
查看轨道信息
2026-06-13T01:00:00+0800
1天前
查看轨道信息
半长轴 6927.622km 6927.658km
偏心率 0.0002274 0.0002535
轨道倾角 97.369° 97.372°
近地点辐角 90.080° 92.290°
升交点赤经 27.316° 26.850°
平近点角 270.069° 157.916°
近地点 547.909km 547.764km
远地点 551.061km 551.278km
周期 95.639分钟 95.640分钟
每日圈数 15.056588 15.056469
详细信息
固有亮度:
5
最大亮度:
2.5
卫星平台:
Starlink V1.0
覆盖范围:
全球
运营商:
太空探索技术公司
运营商所在国:
美国
制造商(研发单位):
太空探索技术公司
制造商所在国:
美国
使用方式:
暂无
卫星简介
Starlink 计划是 SpaceX 推出的全球卫星互联网项目,通过发射低轨道卫星,为全球尤其是偏远地区提供高速、低延迟的互联网服务。自 2019 年起,Starlink 已部署数千颗卫星,旨在缩小全球数字鸿沟,推动互联网普及。该项目还为军事、航空等行业提供通信支持,带来广泛经济效益。
2D轨道图
3D轨道图
轨道高度分析图
轨道倾角分析图
轨道综合分析图
查看轨道综合分析图